Regional Weather Roundup
Issued by NWS

Home | Current Version | Previous Version | Text Only | Print | Product List | Glossary On
Versions: 1 2 3 4 5 6 7 8 9 10 11 12 13 14 15 16 17 18 19 20 21 22 23 24 25 26 27 28 29 30 31 32 33 34 35 36 37 38 39 40 41 42 43 44 45 46 47 48 49 50
219
ASUS45 KABQ 252110
RWRNM
NEW MEXICO REGIONAL WEATHER ROUNDUP
NATIONAL WEATHER SERVICE ALBUQUERQUE NM
300 PM MDT SAT JUN 25 2016

NOTE: "FAIR" MEANS FEW OR NO CLOUDS BELOW 12,000 FEET AGL WITH NO
       SIGNIFICANT WEATHER OR OBSTRUCTIONS TO VISION.

      THIS PRODUCT IS RELEASED AS TWO VERSIONS.  ONE VERSION NEAR
      THE TOP OF THE HOUR CONTAINING PRELIMINARY DATA FROM ALBUQUERQUE
      AND OTHER STATIONS.  A FINAL VERSION WITH ADDITIONAL DATA IS
      ISSUED ABOUT 10 MINUTES AFTER THE HOUR.

NMZ501-503-504-510>518-252200-
NORTHWEST PLATEAU/NORTHCENTRAL MOUNTAINS

CITY           SKY/WX    TMP DP  RH WIND       PRES   REMARKS
FARMINGTON     FAIR      93  28  10 E8        30.06F
LOS ALAMOS     CLOUDY    72  38  29 NW13G23   30.27S
SANTA FE       FAIR      87  39  18 VRB5      30.15F
TAOS           FAIR      81  37  21 NW6G16    30.26R

$$
NMZ402-403-502-505>509-252200-
WESTCENTRAL MOUNTAINS/SOUTHWEST MOUNTAINS

CITY           SKY/WX    TMP DP  RH WIND       PRES   REMARKS
GALLUP         FAIR      89  28  11 N7        30.17F
GRANTS         CLOUDY    82  33  16 NW6G16    30.24S
SILVER CITY    FAIR      89  44  21 NE5       30.08F

$$
NMZ407-409-411-412-252200-
SOUTHERN DESERTS

CITY           SKY/WX    TMP DP  RH WIND       PRES   REMARKS
LORDSBURG      FAIR      93  46  20 MISG      29.99F
DEMING         FAIR      95  47  19 E7        30.00F
LAS CRUCES     FAIR      96  42  15 S8        30.02F
HOLLOMAN AFB   FAIR      91  51  24 NE13      29.98F
ALAMOGORDO     FAIR      88  50  27 N8        30.01F
T OR C         FAIR      92  44  19 VRB6      30.02F

$$
NMZ519>523-252200-
CENTRAL VALLEYS/CENTRAL HIGHLANDS

CITY           SKY/WX    TMP DP  RH WIND       PRES   REMARKS
ALBUQUERQUE    PTSUNNY   92  38  15 N8        30.09F
DOUBLE EAGLE   PTSUNNY   88  41  19 VRB6      30.14S
MORIARTY ARPT  FAIR      87  33  14 S3        30.16F
CLINES CORNERS FAIR      83  41  22 CALM      30.21S
BELEN          FAIR      91  36  14 E8        30.08S
SOCORRO          N/A     86  43  21 SW22G30   30.07R

$$
NMZ524>526-539-540-252200-
SOUTHCENTRAL MOUNTAINS

CITY           SKY/WX    TMP DP  RH WIND       PRES   REMARKS
RUIDOSO          N/A     73  37  27 S8        30.28R

$$
NMZ527>531-252200-
NORTHEAST HIGHLANDS/NORTHEAST PLAINS

CITY           SKY/WX    TMP DP  RH WIND       PRES   REMARKS
LAS VEGAS      FAIR      85  42  22 NW20G26   30.20S
RATON          LGT RAIN  73  45  36 N28G36    30.19R
CLAYTON        CLOUDY    90  56  31 VRB7      30.04F

$$
NMZ532>537-252200-
EASTCENTRAL PLAINS

CITY           SKY/WX    TMP DP  RH WIND       PRES   REMARKS
TUCUMCARI      FAIR     100  47  16 S12G24    29.95F HX  96
CANNON AFB     SUNNY     93  57  30 SE17G23   30.03F
CLOVIS AIRPORT FAIR      91  57  31 S10G22    30.03F

$$
NMZ028-029-538-252200-
SOUTHEAST PLAINS

CITY           SKY/WX    TMP DP  RH WIND       PRES   REMARKS
ROSWELL        FAIR      97  54  23 S8        29.97F HX  95
ARTESIA        FAIR      95  57  28 SE7G18    29.96F
CARLSBAD       FAIR      97  54  23 E10G21    29.93F HX  95
HOBBS          SUNNY     93  50  22 SE12G20   30.01F


$$




USA.gov is the U.S. government's official web portal to all federal, state and local government web resources and services.